Regional Weather Roundup
Issued by NWS Sioux Falls, SD

Home | Current Version | Previous Version | Graphics & Text | Print | Product List | Glossary Off
Versions: 1 2 3 4 5 6 7 8 9 10 11 12 13 14 15 16 17 18 19 20 21 22 23 24 25 26 27 28 29 30 31 32 33 34 35 36 37 38 39 40 41 42 43 44 45 46 47 48 49 50

000
ASUS43 KFSD 270802
RWRFSD

WEATHER ROUNDUP FOR SE SOUTH DAKOTA/SW MINNESOTA/NW IOWA
NATIONAL WEATHER SERVICE SIOUX FALLS SD
200 AM CST FRI FEB 27 2015

NOTE: "FAIR" INDICATES FEW OR NO CLOUDS BELOW 12,000 FEET WITH NO
SIGNIFICANT WEATHER AND OR OBSTRUCTIONS TO VISIBILITY.


SDZ038>040-050-052>070-270900-
SOUTHEAST SOUTH DAKOTA

CITY           SKY/WX    TMP DP  RH WIND       PRES   REMARKS
CHAMBERLAIN    NOT AVBL
HURON          PTCLDY   -12 -17  78 W5        30.54S WCI -24
MADISON        FAIR      -9 -11  92 W3        30.49R
MITCHELL       CLEAR     -4 -10  75 W5        30.57R WCI -15
SIOUX FALLS    CLEAR     -7 -12  79 VRB3      30.53R
WINNER         FAIR      -6 -15  65 S5        30.48S WCI -17
YANKTON        CLEAR     -2  -6  84 W6        30.58S WCI -14
$$

MNZ071-072-080-081-089-090-097-098-270900-
SOUTHWEST MINNESOTA

CITY           SKY/WX    TMP DP  RH WIND       PRES   REMARKS
FAIRMONT       CLEAR     -8 -13  77 NW8       30.49R WCI -23
JACKSON        CLEAR     -9 -17  70 W6        30.49S WCI -23
LUVERNE        CLEAR     -8 -13  77 CALM      30.53S
MARSHALL       CLEAR     -8 -15  71 W7        30.52S WCI -22
MONTEVIDEO     CLEAR     -8 -11  84 W6        30.53S WCI -21
PIPESTONE      PTCLDY   -15 -18  84 CALM      30.48S
REDWOOD FALLS  CLEAR     -9 -14  78 W7        30.53S WCI -24
TRACY          CLEAR     -5 -11  75 W6        30.51S WCI -17
WINDOM         CLEAR    -13 -17  84 CALM      30.50R
WORTHINGTON    CLEAR     19 -24  13 W6        30.50S WCI  11
$$

IAZ001>003-012>014-020>022-031-032-NEZ013-014-SDZ071-270900-
NORTHWEST IOWA

CITY           SKY/WX    TMP DP  RH WIND       PRES   REMARKS
DENISON        CLEAR     -9 -15  77 CALM      30.54S
ESTHERVILLE    CLEAR    -12 -16  82 W10       30.50S WCI -31
LE MARS        CLEAR     -6 -11  77 CALM      30.58S
SIOUX CITY     CLEAR     -3  -9  75 NW6       30.59R WCI -15
SPENCER        CLEAR    -14 -19  79 W9        30.53R WCI -33
$$

ABBREVIATIONS USED IN REMARKS
   TC - TEMPERATURE IN CELSIUS
  WCI - WIND CHILL INDEX
   HX - HEAT INDEX
  VSB - VISIBILITY




USA.gov is the U.S. government's official web portal to all federal, state and local government web resources and services.